Weather History for Bentonville, AR

Change the Weather History Date:

Sunday, January 13, 2013

  Actual Average Record
Temperature  
Mean Temperature 24 °F -  
Max Temperature 30 °F 42 °F 70 °F (1952)
Min Temperature 17 °F 19 °F -3 °F (1963)
Degree Days  
Heating Degree Days 42    
Moisture  
Dew Point 18 °F    
Average Humidity 79    
Maximum Humidity 86    
Minimum Humidity 69    
Precipitation  
Precipitation 0.09 in - - ()
Sea Level Pressure  
Sea Level Pressure 30.14 in    
Wind  
Wind Speed 11 mph (North)    
Max Wind Speed 15 mph    
Max Gust Speed 21 mph    
Visibility 10 miles    
Events      
Averages and records for this station are not official NWS values.
T = Trace of Precipitation, MM = Missing Value Source: NWS Daily Summary

Daily Weather History Graph

Daily Weather History Graph

Search for Another Location

Airport:

Trip Planner

Search our weather history database for the weather conditions in past years. The results will help you decide how hot, cold, wet, or windy it might be!

Date:

Astronomy

Jan. 13, 2013 Rise Set
Actual Time 7:28 AM CST 5:23 PM CST
Civil Twilight 6:59 AM CST 5:51 PM CST
Nautical Twilight 6:28 AM CST 6:23 PM CST
Astronomical Twilight 5:57 AM CST 6:54 PM CST
Moon 8:31 AM CST (1/13) 7:57 PM CST (1/13)
Length of Visible Light 10h 51m
Length of Day
9h 55m
Waxing Crescent, 5% of the Moon is Illuminated
Jan 13
Waxing Crescent
Jan 18
First Quarter
Jan 26
Full
Feb 3
Last Quarter
Feb 10
New

Hourly Weather History & Observations

Time (CST) Temp. Windchill Dew Point Humidity Pressure Visibility Wind Dir Wind Speed Gust Speed Precip Events Conditions
12:15 AM 30.2 °F 20.8 °F 26.6 °F 86% 29.94 in 10.0 mi North 11.5 mph - N/A   Overcast
12:35 AM 28.4 °F 19.1 °F 24.8 °F 86% 29.96 in 10.0 mi NNW 10.4 mph - N/A   Overcast
12:55 AM 28.4 °F 19.7 °F 24.8 °F 86% 29.97 in 10.0 mi North 9.2 mph 17.3 mph N/A   Overcast
1:15 AM 28.4 °F 17.5 °F 24.8 °F 86% 29.96 in 10.0 mi North 13.8 mph 20.7 mph N/A   Overcast
1:35 AM 26.6 °F 16.8 °F 23.0 °F 86% 29.98 in 10.0 mi North 10.4 mph 18.4 mph N/A   Overcast
2:15 AM 26.6 °F 14.7 °F 21.2 °F 80% 29.97 in 10.0 mi North 15.0 mph - N/A   Overcast
2:35 AM 26.6 °F 15.7 °F 21.2 °F 80% 29.97 in 10.0 mi North 12.7 mph - N/A   Overcast
2:55 AM 26.6 °F 16.2 °F 21.2 °F 80% 29.98 in 10.0 mi North 11.5 mph 16.1 mph N/A   Overcast
3:15 AM 26.6 °F 14.7 °F 21.2 °F 80% 29.98 in 10.0 mi North 15.0 mph 18.4 mph N/A   Overcast
3:35 AM 24.8 °F 12.9 °F 19.4 °F 80% 30.01 in 10.0 mi North 13.8 mph 19.6 mph N/A   Overcast
3:55 AM 24.8 °F 13.4 °F 19.4 °F 80% 29.99 in 10.0 mi North 12.7 mph - N/A   Overcast
4:15 AM 24.8 °F 13.4 °F 19.4 °F 80% 30.01 in 10.0 mi North 12.7 mph - N/A   Overcast
4:35 AM 24.8 °F 14.6 °F 19.4 °F 80% 30.04 in 10.0 mi North 10.4 mph 17.3 mph N/A   Overcast
4:55 AM 24.8 °F 14.6 °F 19.4 °F 80% 30.04 in 10.0 mi North 10.4 mph - N/A   Overcast
5:15 AM 24.8 °F 14.0 °F 17.6 °F 74% 30.04 in 10.0 mi North 11.5 mph - N/A   Overcast
5:35 AM 24.8 °F 16.9 °F 19.4 °F 80% 30.07 in 10.0 mi North 6.9 mph - N/A   Overcast
6:15 AM 24.8 °F 12.9 °F 17.6 °F 74% 30.05 in 10.0 mi North 13.8 mph - N/A   Overcast
6:35 AM 24.8 °F 14.0 °F 17.6 °F 74% 30.06 in 10.0 mi North 11.5 mph 17.3 mph N/A   Overcast
6:55 AM 24.8 °F 14.0 °F 17.6 °F 74% 30.05 in 10.0 mi North 11.5 mph - N/A   Overcast
7:35 AM 23.0 °F 12.4 °F 17.6 °F 80% 30.09 in 10.0 mi NNW 10.4 mph - N/A   Overcast
7:55 AM 23.0 °F 11.7 °F 17.6 °F 80% 30.07 in 10.0 mi North 11.5 mph - N/A   Overcast
8:15 AM 21.2 °F 8.3 °F 17.6 °F 86% 30.12 in 10.0 mi North 13.8 mph 17.3 mph N/A   Overcast
8:35 AM 21.2 °F 9.5 °F 15.8 °F 80% 30.11 in 10.0 mi North 11.5 mph - N/A   Overcast
8:55 AM 21.2 °F 9.5 °F 15.8 °F 80% 30.12 in 10.0 mi North 11.5 mph - N/A   Overcast
9:35 AM 21.2 °F 8.9 °F 15.8 °F 80% 30.15 in 10.0 mi North 12.7 mph - N/A   Overcast
9:55 AM 21.2 °F 7.8 °F 15.8 °F 80% 30.15 in 10.0 mi North 15.0 mph - N/A   Overcast
10:35 AM 23.0 °F 13.9 °F 17.6 °F 80% 30.18 in 10.0 mi North 8.1 mph - N/A   Overcast
10:55 AM 23.0 °F 11.7 °F 17.6 °F 80% 30.17 in 10.0 mi NNW 11.5 mph - N/A   Mostly Cloudy
11:35 AM 23.0 °F 13.1 °F 15.8 °F 74% 30.16 in 10.0 mi NNW 9.2 mph - N/A   Mostly Cloudy
11:55 AM 23.0 °F 12.4 °F 17.6 °F 80% 30.16 in 10.0 mi NNW 10.4 mph - N/A   Overcast
12:15 PM 23.0 °F 12.4 °F 17.6 °F 80% 30.17 in 10.0 mi NW 10.4 mph - N/A   Overcast
12:35 PM 23.0 °F 12.4 °F 17.6 °F 80% 30.17 in 10.0 mi NW 10.4 mph - N/A   Overcast
12:55 PM 23.0 °F 11.7 °F 15.8 °F 74% 30.18 in 10.0 mi NW 11.5 mph - N/A   Overcast
1:35 PM 24.8 °F 14.0 °F 17.6 °F 74% 30.18 in 10.0 mi NNW 11.5 mph - N/A   Overcast
2:15 PM 24.8 °F 14.6 °F 15.8 °F 69% 30.18 in 10.0 mi NNW 10.4 mph - N/A   Overcast
2:35 PM 24.8 °F 16.1 °F 17.6 °F 74% 30.19 in 10.0 mi NNW 8.1 mph - N/A   Overcast
2:55 PM 24.8 °F 16.1 °F 15.8 °F 69% 30.20 in 10.0 mi NW 8.1 mph - N/A   Mostly Cloudy
3:35 PM 24.8 °F 14.0 °F 17.6 °F 74% 30.22 in 10.0 mi North 11.5 mph - N/A   Partly Cloudy
3:55 PM 24.8 °F 16.1 °F 17.6 °F 74% 30.22 in 10.0 mi North 8.1 mph - N/A   Clear
4:15 PM 24.8 °F 15.3 °F 17.6 °F 74% 30.21 in 10.0 mi North 9.2 mph - N/A   Clear
4:35 PM 24.8 °F 15.3 °F 17.6 °F 74% 30.21 in 10.0 mi North 9.2 mph - N/A   Clear
4:55 PM 24.8 °F 16.9 °F 17.6 °F 74% 30.22 in 10.0 mi North 6.9 mph - N/A   Clear
5:35 PM 24.8 °F 17.9 °F 15.8 °F 69% 30.22 in 10.0 mi North 5.8 mph - N/A   Clear
6:15 PM 23.0 °F 15.8 °F 17.6 °F 80% 30.23 in 10.0 mi North 5.8 mph - N/A   Clear
6:35 PM 23.0 °F 14.7 °F 17.6 °F 80% 30.23 in 10.0 mi North 6.9 mph - N/A   Clear
6:55 PM 21.2 °F 12.6 °F 17.6 °F 86% 30.23 in 10.0 mi North 6.9 mph - N/A   Partly Cloudy
7:15 PM 21.2 °F 12.6 °F 17.6 °F 86% 30.24 in 10.0 mi North 6.9 mph - N/A   Scattered Clouds
7:35 PM 21.2 °F 12.6 °F 15.8 °F 80% 30.25 in 10.0 mi North 6.9 mph - N/A   Partly Cloudy
7:55 PM 21.2 °F 12.6 °F 15.8 °F 80% 30.25 in 10.0 mi North 6.9 mph - N/A   Clear
8:15 PM 21.2 °F 12.6 °F 15.8 °F 80% 30.24 in 10.0 mi North 6.9 mph - N/A   Clear
8:35 PM 19.4 °F 10.4 °F 15.8 °F 86% 30.25 in 10.0 mi NNE 6.9 mph - N/A   Clear
8:55 PM 19.4 °F 11.5 °F 14.0 °F 80% 30.25 in 10.0 mi NNE 5.8 mph - N/A   Clear
9:15 PM 19.4 °F 11.5 °F 15.8 °F 86% 30.26 in 10.0 mi NE 5.8 mph - N/A   Clear
10:15 PM 19.4 °F 14.3 °F 14.0 °F 80% 30.28 in 10.0 mi NNE 3.5 mph - N/A   Clear
10:35 PM 19.4 °F 14.3 °F 14.0 °F 80% 30.29 in 10.0 mi NE 3.5 mph - N/A   Clear
10:55 PM 19.4 °F 12.8 °F 14.0 °F 80% 30.29 in 10.0 mi NNE 4.6 mph - N/A   Clear
11:35 PM 17.6 °F 9.3 °F 12.2 °F 79% 30.30 in 10.0 mi NE 5.8 mph - N/A   Clear
11:55 PM 17.6 °F 12.3 °F 12.2 °F 79% 30.31 in 10.0 mi NE 3.5 mph - N/A   Clear